EW4964 Weather Reports


Display with metric or nautical units.
time (UTC)temp
F
wind
direction
speed
MPH
gust
MPH
rain 1hr
in
rain 24hr
in
rain mn
in
humidity
%
barometer
mb
20260905140007 65 232 8.0 17.0 0.00 0.13 0.13 26 1017.7
20260905134506 66 254 6.0 14.0 0.00 0.13 0.13 25 1017.7
20260905133006 65 298 8.0 22.0 0.00 0.13 0.13 26 1017.6
20260905131506 64 284 9.0 17.0 0.00 0.13 0.13 26 1017.8
20260905130006 65 89 5.0 13.0 0.00 0.13 0.13 26 1017.9
20260905124506 64 270 7.0 17.0 0.00 0.13 0.13 26 1017.8
20260905123007 64 352 6.0 15.0 0.00 0.13 0.13 25 1017.8
20260905121506 64 302 5.0 12.0 0.00 0.13 0.13 27 1018.0
20260905120006 65 23 5.0 11.0 0.00 0.13 0.13 29 1017.7
20260905114506 64 76 5.0 11.0 0.00 0.13 0.13 29 1017.7
20260905113007 64 354 7.0 17.0 0.00 0.13 0.13 27 1017.9
20260905110006 62 276 5.0 15.0 0.00 0.13 0.13 31 1017.8
20260905104506 62 344 6.0 15.0 0.00 0.13 0.13 31 1017.7
20260905103006 61 250 8.0 15.0 0.00 0.13 0.13 34 1017.7
20260905101505 61 264 8.0 15.0 0.00 0.13 0.13 35 1017.8
20260905093005 58 261 4.0 11.0 0.01 0.13 0.13 45 1017.9
20260905091506 58 286 5.0 11.0 0.01 0.13 0.13 46 1017.9
20260905090005 57 305 5.0 10.0 0.01 0.13 0.13 51 1017.8
20260905084505 56 222 6.0 16.0 0.01 0.13 0.13 53 1017.5
20260905083006 55 297 4.0 8.0 0.00 0.12 0.12 61 1017.5
20260905081506 55 130 4.0 8.0 0.00 0.12 0.12 63 1017.6
20260905080006 54 35 4.0 9.0 0.00 0.12 0.12 64 1017.4
20260905073006 53 19 3.0 6.0 0.00 0.12 0.12 71 1017.0
20260905071505 53 243 3.0 6.0 0.00 0.12 0.12 75 1016.7
20260905070006 52 292 5.0 13.0 0.00 0.12 0.12 75 1016.9
20260905064505 51 292 5.0 10.0 0.00 0.12 0.12 75 1016.9
20260905063006 51 263 5.0 11.0 0.00 0.12 0.12 74 1017.0
20260905060005 51 252 4.0 8.0 0.05 0.12 0.12 71 1016.4
20260905054505 51 252 6.0 10.0 0.07 0.12 0.12 67 1015.5
20260905053005 51 284 4.0 8.0 0.08 0.12 0.12 65 1016.0
20260905051505 52 353 4.0 7.0 0.06 0.09 0.09 62 1016.0
20260905050005 53 304 4.0 11.0 0.04 0.07 0.07 58 1016.1
20260905044505 54 2 4.0 9.0 0.01 0.05 0.05 55 1016.3
20260905041505 54 312 3.0 8.0 0.01 0.04 0.04 61 1015.8
20260905040005 55 293 2.0 6.0 0.02 0.04 0.04 61 1015.2
20260905034505 55 336 2.0 4.0 0.02 0.04 0.04 61 1015.3
20260905030005 56 295 2.0 6.0 0.01 0.01 0.01 56 1015.3
20260905024504 56 333 3.0 7.0 0.00 0.00 0.00 53 1014.8
20260905023005 57 333 5.0 12.0 0.00 0.00 0.00 51 1014.8
20260905021505 57 326 3.0 10.0 0.00 0.00 0.00 48 1014.3
20260905020005 57 339 3.0 9.0 0.00 0.00 0.00 47 1014.4
20260905013004 58 344 5.0 13.0 0.00 0.00 0.00 46 1014.1
20260905011504 58 12 5.0 11.0 0.00 0.00 0.00 45 1014.3
20260905010004 59 7 7.0 16.0 0.00 0.00 0.00 43 1014.1
20260905003008 60 329 8.0 15.0 0.00 0.00 0.00 42 1013.9
20260905000008 62 351 9.0 20.0 0.00 0.00 0.00 36 1013.5
20260904234508 65 338 5.0 21.0 0.00 0.00 0.00 33 1013.0
20260904233008 66 314 4.0 8.0 0.00 0.00 0.00 32 1012.1
20260904231508 66 291 5.0 8.0 0.00 0.00 0.00 32 1012.0
20260904230007 66 322 4.0 8.0 0.00 0.00 0.00 32 1012.0
20260904224508 66 317 5.0 10.0 0.00 0.00 0.00 32 1011.8
20260904221507 67 314 3.0 6.0 0.00 0.00 0.00 31 1012.0
20260904220011 67 314 4.0 8.0 0.00 0.00 0.00 31 1011.8
20260904214508 67 329 4.0 7.0 0.00 0.00 0.00 31 1011.8
20260904213008 67 314 4.0 9.0 0.00 0.00 0.00 31 1011.8
20260904211508 67 314 4.0 7.0 0.00 0.00 0.00 31 1011.9
20260904210008 68 323 4.0 6.0 0.00 0.00 0.00 31 1011.8
20260904203008 68 333 4.0 8.0 0.00 0.00 0.00 31 1011.9
20260904201508 68 1 4.0 8.0 0.00 0.00 0.00 31 1012.0
20260904200008 68 343 3.0 7.0 0.00 0.00 0.00 31 1012.1
20260904194507 68 314 3.0 4.0 0.00 0.00 0.00 31 1012.3
20260904193007 69 306 4.0 8.0 0.00 0.00 0.00 31 1012.1
20260904191507 69 307 3.0 7.0 0.00 0.00 0.00 31 1012.4
20260904190007 69 314 3.0 5.0 0.00 0.00 0.00 31 1012.6
20260904184507 69 292 3.0 6.0 0.00 0.00 0.00 31 1012.6
20260904183007 69 310 3.0 6.0 0.00 0.00 0.00 31 1012.7
20260904181507 70 301 4.0 7.0 0.00 0.00 0.00 31 1012.6
20260904180007 70 290 5.0 10.0 0.00 0.00 0.00 29 1012.4
20260904174507 71 351 4.0 7.0 0.00 0.00 0.00 29 1012.2
20260904173007 71 303 4.0 10.0 0.00 0.00 0.00 25 1011.9
20260904171507 72 273 6.0 13.0 0.00 0.00 0.00 25 1011.8
20260904170007 72 283 6.0 12.0 0.00 0.00 0.00 24 1011.8
20260904164506 73 297 7.0 15.0 0.00 0.00 0.00 24 1012.1
20260904163006 73 251 9.0 17.0 0.00 0.00 0.00 24 1012.0
20260904161506 75 300 9.0 18.0 0.00 0.00 0.00 24 1012.2
20260904160006 76 262 9.0 18.0 0.00 0.00 0.00 23 1012.2
20260904154506 77 284 8.0 20.0 0.00 0.00 0.00 23 1012.5
20260904153006 78 272 5.0 11.0 0.00 0.00 0.00 23 1012.5
20260904151506 76 286 7.0 12.0 0.00 0.00 0.00 24 1012.8
20260904150007 76 258 8.0 15.0 0.00 0.00 0.00 24 1013.0
20260904144507 76 293 7.0 14.0 0.00 0.00 0.00 24 1013.1
20260904143007 76 234 8.0 18.0 0.00 0.00 0.00 24 1013.5
20260904141509 75 264 9.0 16.0 0.00 0.00 0.00 24 1013.8